This is the latest recevied weather packets stored in our database for station/object HK6RM-17. If no packets are shown the sender has not sent any weather packets the latest 10 day(s).
| Time | Temp. | Humidity | Pressure | Rain* | Wind** | Luminosity | Snow |
|---|---|---|---|---|---|---|---|
| 1777563720 | 21.67° C | 68% | 1012 hPa | 0 mm | - | - | - |
| 1777563120 | 18.89° C | 71% | 1012 hPa | 0 mm | - | - | - |
| 1777562516 | 19.44° C | 71% | 1013 hPa | 0 mm | - | - | - |
| 1777561915 | 19.44° C | 71% | 1013 hPa | 0 mm | - | - | - |
| 1777561313 | 19.44° C | 71% | 1013 hPa | 0 mm | - | - | - |
| 1777560712 | 20° C | 71% | 1013 hPa | 0 mm | - | - | - |
| 1777560112 | 18.89° C | 69% | 1013 hPa | 0 mm | - | - | - |
| 1777559511 | 18.89° C | 68% | 1013 hPa | 0 mm | - | - | - |
| 1777558911 | 18.89° C | 67% | 1014 hPa | 0 mm | - | - | - |
| 1777558309 | 18.89° C | 65% | 1014 hPa | 0 mm | - | - | - |
| 1777557707 | 18.89° C | 63% | 1014 hPa | 0 mm | - | - | - |
| 1777557106 | 18.89° C | 63% | 1014 hPa | 0 mm | - | - | - |
| 1777556505 | 19.44° C | 63% | 1014 hPa | 0 mm | - | - | - |
| 1777555905 | 19.44° C | 63% | 1014 hPa | 0 mm | - | - | - |
| 1777555303 | 20° C | 63% | 1014 hPa | 0 mm | - | - | - |
| 1777554701 | 15.56° C | 82% | 1014 hPa | 0 mm | - | - | - |
| 1777554101 | 16.11° C | 82% | 1014 hPa | 0 mm | - | - | - |
| 1777553500 | 15.56° C | 82% | 1014 hPa | 0 mm | - | - | - |
| 1777552900 | 16.11° C | 82% | 1014 hPa | 0 mm | - | - | - |
| 1777552296 | 15.56° C | 82% | 1014 hPa | 0 mm | - | - | - |
| 1777551695 | 16.11° C | 82% | 1014 hPa | 0 mm | - | - | - |
| 1777551095 | 12.78° C | 87% | 1014 hPa | 0 mm | - | - | - |
| 1777550494 | 13.33° C | 87% | 1014 hPa | 0 mm | - | - | - |
| 1777549892 | 13.33° C | 87% | 1014 hPa | 0 mm | - | - | - |
| 1777549291 | 13.89° C | 87% | 1015 hPa | 0 mm | - | - | - |
* Rain latest hour (hover to see other rain measurements)
** Current wind speed in m/s (hover to see current wind gust speed)